Theta_e
323 325 327 328 329 330 336 336 333 337 333 330 333 327 323 325 327 322 319 317 317 318 320 322 325 325 324 325 325 327 325 329 335 334 329 326 321 322 325 325 327 326 326 326 324 323 323 323 323 324 326 327 330 332 332 332 334 334 335 334 335 336 336 336 337 337 338 338 338 338 338 337 337 336 336 334 334 333 334 335 335 336 337 338 338 339 339 339 339 339 339 339 338 337 336 337 338
324 328 329 329 329 332 345 339 331 335 328 326 330 325 323 325 323 322 321 319 319 318 320 322 325 325 324 324 322 323 325 322 326 328 322 319 320 322 324 324 326 326 326 325 324 321 321 320 320 322 324 326 328 330 330 330 333 333 334 333 333 335 334 335 335 336 336 336 336 336 336 335 334 333 333 333 332 332 332 332 332 333 335 336 337 337 338 338 339 339 339 338 337 336 335 334 335
325 330 329 330 332 333 344 337 332 331 323 327 332 329 322 321 324 323 322 319 320 320 322 322 323 323 322 325 320 320 324 320 320 320 317 318 319 321 323 323 324 326 325 325 324 320 319 319 319 321 323 326 327 328 328 329 331 331 332 332 332 332 332 332 333 334 334 334 333 333 333 332 332 332 332 332 331 330 330 330 330 331 332 333 334 335 335 335 335 336 336 335 334 333 332 332 332
326 330 329 331 338 338 339 337 338 330 325 328 326 330 325 325 327 321 320 320 320 322 322 322 322 319 320 324 319 322 324 321 320 318 317 317 318 320 322 322 323 324 324 324 323 319 319 319 318 319 323 326 327 327 328 328 329 330 330 330 330 330 330 330 330 331 331 331 331 330 330 329 329 329 329 329 328 328 328 328 328 329 329 330 331 332 332 331 332 333 332 331 331 330 330 329 329
325 330 327 329 340 341 335 335 338 329 330 328 318 329 328 325 325 320 321 320 321 321 321 320 322 319 318 321 319 325 325 322 319 316 317 316 318 320 321 322 322 322 323 323 321 318 318 319 318 318 321 324 326 327 327 327 328 328 327 327 326 327 328 328 328 328 328 328 328 328 327 327 327 326 325 325 324 324 324 324 324 325 325 326 327 328 328 328 328 328 327 327 327 326 327 326 326
325 327 327 328 334 334 332 334 335 328 330 327 320 327 325 323 323 321 320 319 321 321 320 319 321 320 319 319 319 324 323 323 319 315 317 316 317 319 320 320 321 321 320 320 319 317 317 318 317 317 320 322 323 322 322 323 323 323 323 324 324 325 326 326 326 326 326 325 324 324 323 322 322 321 320 320 319 319 319 318 318 318 318 319 320 321 321 322 322 321 321 320 319 318 318 319 320
326 328 330 331 331 328 330 332 332 330 329 326 325 326 322 322 321 320 321 319 320 319 319 320 320 321 319 317 318 319 318 321 318 316 317 316 317 318 318 318 319 319 319 318 316 316 317 317 316 317 318 317 316 315 314 315 316 317 319 320 321 323 324 324 324 324 322 321 319 317 316 315 314 313 313 313 312 312 311 310 310 309 308 308 308 309 311 313 313 311 309 308 306 306 306 306 307
325 330 334 336 335 327 328 330 327 326 328 326 324 324 323 321 320 322 322 319 319 318 318 320 320 321 320 318 320 318 315 319 318 317 317 316 317 317 317 317 318 318 318 317 315 315 315 316 316 315 314 312 311 309 309 309 310 311 312 313 315 316 317 317 317 316 315 313 311 309 307 306 306 305 305 305 304 304 303 302 302 301 301 300 300 300 302 305 305 301 300 299 299 299 299 299 299
323 329 334 335 333 328 328 329 326 325 326 327 322 322 323 320 321 324 323 320 319 319 319 320 319 319 319 318 321 317 315 318 317 316 315 316 316 315 316 316 317 317 317 317 314 313 314 315 315 313 310 308 307 306 306 305 305 305 306 306 306 307 307 308 307 307 306 304 303 302 301 300 300 300 299 299 299 299 298 298 298 298 298 297 297 297 298 299 299 297 297 297 297 297 297 297 297
325 327 331 332 330 329 330 327 328 331 327 326 324 321 322 319 321 323 323 321 321 320 319 319 317 317 318 320 323 317 315 316 315 315 314 314 313 313 315 315 315 315 315 314 313 312 312 314 312 309 307 305 304 303 303 303 302 302 302 302 301 302 301 301 301 300 300 299 298 298 298 298 298 297 297 297 297 297 297 297 297 297 296 297 297 297 296 297 297 296 296 296 296 296 296 296 296
328 329 329 328 326 326 330 329 328 334 328 324 323 321 322 321 321 321 321 321 321 321 319 318 318 319 316 319 323 317 314 315 314 314 313 313 311 311 313 313 313 313 312 311 311 312 311 311 309 306 304 303 302 301 301 301 301 301 300 300 300 299 299 299 298 298 298 298 298 297 297 297 297 297 297 296 296 296 296 296 296 296 296 296 298 297 297 297 296 296 295 296 296 296 296 296 296
330 332 329 326 327 326 327 328 326 331 333 326 321 319 321 322 320 320 320 320 320 321 319 317 319 319 318 320 320 314 312 313 313 313 312 311 310 310 311 311 312 311 310 310 310 311 310 309 306 304 303 302 301 300 301 300 300 300 300 299 299 299 298 298 298 298 297 297 297 297 297 297 296 296 296 296 296 296 296 296 296 296 296 296 296 296 296 296 296 295 295 295 295 295 296 296 296
329 331 326 327 334 330 326 326 327 331 333 327 320 319 320 321 321 321 322 320 320 321 319 318 319 318 319 320 316 312 312 312 312 313 311 309 308 308 309 309 309 309 309 309 309 309 308 306 304 302 301 300 299 299 300 299 299 299 299 299 298 298 298 298 297 297 297 297 297 297 297 297 297 297 297 296 296 296 296 296 296 296 296 296 296 296 296 295 295 295 295 295 295 295 296 296 296
328 331 323 329 334 328 325 325 326 326 329 327 319 319 319 320 321 322 322 319 320 321 319 317 318 318 319 319 317 314 312 312 312 312 310 308 307 307 307 307 307 307 307 308 307 305 304 302 301 300 299 299 299 299 299 299 298 298 298 298 298 298 298 298 297 297 297 297 297 297 297 297 297 297 297 297 296 296 296 296 296 296 296 296 295 295 295 295 295 295 295 295 295 295 295 295 295
326 333 324 326 330 327 326 326 325 322 329 329 318 319 320 318 320 320 319 319 319 318 317 316 316 319 319 318 324 320 312 312 311 310 310 308 307 307 306 306 306 306 306 306 304 302 301 299 299 298 298 298 299 299 298 298 298 298 298 298 298 297 297 297 297 297 297 297 297 297 297 297 297 297 296 296 296 296 296 296 296 295 295 295 295 295 295 296 296 295 295 294 294 295 295 295 295
326 333 325 324 328 326 327 329 326 323 330 328 317 319 319 318 319 319 317 316 319 318 317 317 316 317 318 318 322 318 311 312 311 310 309 307 307 306 306 306 306 305 304 304 302 301 300 298 297 297 298 298 299 298 298 297 297 297 297 297 297 297 297 297 297 297 297 297 297 297 296 296 296 296 296 296 295 295 295 295 295 294 294 294 295 295 296 297 296 295 294 294 293 294 294 294 294
329 332 325 326 329 326 330 331 323 324 329 324 317 318 318 318 318 316 314 314 318 318 318 318 316 315 316 317 316 313 311 311 310 308 307 306 305 305 305 305 305 304 302 302 301 300 300 299 297 297 298 298 298 298 297 297 297 297 296 296 296 296 297 296 297 296 296 296 296 296 296 296 295 295 295 295 295 295 295 294 294 294 294 294 294 294 294 295 295 294 293 293 293 294 294 294 294
330 332 325 324 328 328 332 328 320 323 325 321 319 319 318 319 319 316 314 316 316 316 318 318 317 314 312 313 312 312 311 309 308 307 305 304 304 304 304 304 304 303 301 302 301 300 300 299 299 298 298 298 298 298 297 297 296 296 296 296 296 296 296 296 296 296 296 296 296 296 295 295 295 295 295 295 295 294 294 294 294 294 294 294 294 294 294 294 294 294 293 293 293 293 294 294 294
330 333 326 328 334 331 328 322 319 320 319 320 321 320 318 318 320 316 315 319 317 316 317 316 317 314 311 311 309 310 309 308 307 305 305 304 303 303 303 303 303 302 302 302 301 300 300 299 299 298 298 299 299 299 297 296 296 296 295 295 295 295 295 296 295 295 296 296 295 295 295 295 294 294 294 294 294 294 294 294 294 294 294 294 294 294 294 294 294 294 294 293 293 294 294 294 294
329 329 326 334 335 328 324 320 319 319 318 320 319 318 317 318 318 315 316 319 318 317 317 316 318 316 314 311 307 308 308 307 306 305 305 304 304 304 303 303 303 303 302 301 302 301 300 299 299 298 298 299 300 299 296 296 296 295 295 295 295 295 295 295 295 295 295 295 295 295 296 295 294 294 294 294 294 294 294 294 294 294 294 294 294 294 294 294 294 294 294 294 293 294 293 293 293
326 324 326 334 328 322 323 320 319 320 318 319 319 317 317 318 317 316 317 317 317 317 315 316 317 316 315 311 307 306 306 305 305 305 304 304 304 304 304 304 304 304 302 301 301 301 300 300 299 299 298 298 299 298 296 296 296 295 295 295 295 295 295 295 295 295 295 295 295 295 296 295 294 294 294 294 294 294 294 294 294 294 294 294 294 294 294 294 293 293 293 293 293 293 293 293 293
323 322 323 327 324 321 322 320 320 320 317 317 318 317 316 318 316 316 318 316 317 317 316 316 316 316 314 311 308 306 306 305 304 304 304 304 304 304 304 304 304 303 302 302 301 301 301 300 300 299 299 299 298 298 297 296 296 295 295 295 295 295 295 295 295 295 295 295 295 295 296 295 294 294 294 294 294 294 294 294 295 294 294 294 294 293 293 293 293 293 293 293 293 293 292 292 292
322 323 321 322 321 320 319 319 321 319 315 317 317 316 316 316 317 318 317 316 316 318 320 318 316 314 311 310 309 308 308 307 305 305 305 305 304 305 305 304 304 303 303 303 302 301 301 300 300 300 299 299 298 297 296 296 296 296 296 296 296 295 295 295 295 295 295 295 295 295 296 296 295 294 294 294 294 294 294 294 294 294 294 294 293 293 293 293 292 292 292 293 292 292 292 292 292
322 323 321 320 319 319 318 318 321 319 316 317 317 314 315 316 317 317 316 315 315 316 319 319 315 311 309 310 310 310 309 307 306 305 306 306 306 306 306 305 305 304 303 303 303 302 301 301 300 300 299 299 298 296 296 296 297 298 298 298 297 296 295 295 295 295 295 295 295 296 296 296 295 294 294 294 294 294 294 294 294 294 294 293 293 293 292 292 292 292 292 292 292 292 292 292 292
320 321 320 318 318 319 318 318 319 319 317 317 316 315 316 316 315 314 315 315 315 315 315 317 315 314 315 313 311 311 309 308 306 306 306 306 306 306 306 305 304 304 303 303 303 303 302 302 301 300 299 299 298 296 296 297 298 298 298 297 297 296 295 296 296 295 295 295 295 295 295 296 295 294 294 294 294 294 294 293 293 293 293 292 292 292 292 291 292 291 292 292 291 291 291 291 291
320 318 318 317 317 317 316 316 316 317 317 316 315 316 315 313 314 314 314 313 314 315 315 316 315 317 318 315 311 310 310 309 306 306 306 306 306 306 306 306 305 304 304 304 303 303 303 302 301 300 300 299 298 297 297 298 298 298 298 297 296 296 296 296 296 296 295 294 294 295 295 295 294 294 294 294 294 293 293 293 293 293 292 292 292 292 291 291 291 291 291 291 291 291 290 290 290
318 316 317 317 316 315 315 315 315 315 316 316 315 316 315 313 314 314 315 315 315 314 314 315 315 316 316 315 312 309 310 309 307 307 307 306 306 306 306 306 305 305 304 304 303 303 303 302 302 301 300 299 299 298 297 298 298 298 298 297 297 297 297 296 296 296 295 294 294 294 294 294 294 293 294 293 293 293 293 292 292 292 292 291 291 291 291 291 291 291 291 291 290 290 290 289 289
315 315 317 317 315 315 315 315 314 313 315 317 315 315 314 313 314 314 314 316 316 317 316 314 314 315 315 314 312 310 309 308 307 307 306 306 306 306 306 306 306 305 304 304 304 303 303 302 302 301 301 300 299 298 298 298 298 298 298 298 297 297 297 297 296 296 295 295 294 293 294 293 293 293 293 293 293 293 292 292 292 292 292 291 291 291 291 291 291 291 291 290 290 289 289 289 288
315 315 315 316 315 315 315 314 315 314 315 316 314 314 316 314 315 315 313 314 315 316 317 317 315 314 314 314 312 311 309 307 306 306 306 307 307 307 307 307 307 306 305 305 304 303 303 302 302 301 301 300 299 298 298 298 298 297 298 298 297 297 297 296 296 295 295 295 294 293 293 293 293 293 293 293 293 293 292 293 292 292 291 291 291 291 291 291 291 291 291 290 290 289 289 288 288
315 315 315 316 315 316 315 314 316 314 314 315 314 315 317 316 315 314 313 313 313 314 315 316 316 314 313 313 312 312 310 308 307 306 307 308 308 308 308 308 307 306 305 304 304 303 303 302 302 301 301 300 299 298 298 298 298 297 297 297 296 296 296 296 296 295 295 295 294 293 293 293 293 293 293 293 293 292 292 293 292 291 291 290 290 291 290 291 291 291 290 290 290 289 288 288 288
315 315 316 316 316 319 318 315 317 315 313 314 314 315 316 316 315 314 314 314 313 313 314 313 314 314 314 314 313 312 311 309 307 307 308 308 308 308 308 308 307 307 305 304 304 304 303 302 302 301 301 301 299 298 298 298 298 298 297 297 296 296 296 295 295 295 295 295 293 293 293 293 293 293 293 293 293 292 292 292 291 291 290 290 290 290 290 290 291 290 290 290 289 288 288 288 288
317 315 319 321 318 318 318 316 316 316 313 312 314 315 315 315 315 314 314 314 314 313 314 313 313 313 313 314 313 313 311 308 306 307 308 308 309 309 308 308 308 307 306 305 304 303 303 302 301 301 301 300 299 298 298 298 298 298 297 297 296 296 295 295 295 295 295 294 293 292 292 293 292 292 292 292 292 292 292 292 291 290 290 290 290 290 290 290 290 290 289 289 288 288 288 288 287
320 315 317 322 319 316 317 318 316 316 315 312 314 316 316 316 317 315 315 316 315 313 314 313 313 312 312 313 312 312 312 310 308 307 307 308 309 309 309 308 308 308 307 305 304 303 302 301 301 301 300 300 299 298 297 297 298 297 297 297 296 296 295 295 295 294 294 294 293 292 292 292 292 292 292 292 292 292 291 291 290 290 290 290 290 290 290 290 290 289 289 288 288 288 287 287 287
320 318 317 319 318 316 317 320 317 315 315 313 313 314 315 316 317 317 316 316 315 314 314 314 313 312 312 312 312 312 312 312 311 308 306 308 308 309 309 309 308 308 307 306 304 303 302 301 301 300 300 300 299 298 297 297 298 297 297 297 296 296 295 294 294 294 294 294 293 292 292 292 292 292 292 291 291 291 291 290 290 290 290 290 290 290 290 289 289 289 288 288 288 287 287 287 287
318 320 319 318 317 315 316 318 316 314 315 315 314 313 313 313 313 314 314 314 314 315 315 314 314 313 312 312 312 312 312 312 312 309 307 308 308 309 309 308 308 308 307 306 304 303 302 301 300 300 299 299 299 298 298 297 297 297 297 297 296 296 295 294 294 294 294 293 293 292 292 292 292 291 291 291 291 291 290 290 290 290 290 289 289 289 289 289 289 288 288 288 288 287 287 286 286
316 318 317 317 316 315 314 316 316 315 315 315 315 313 313 313 312 312 312 312 313 313 313 313 313 313 313 312 312 312 312 312 311 308 308 308 307 308 309 308 308 308 307 305 304 302 301 300 300 299 299 299 298 298 297 297 297 297 297 296 296 295 294 294 294 294 294 293 293 293 292 292 291 291 291 291 290 290 290 290 290 290 289 289 289 289 289 289 289 289 289 288 288 287 287 286 286
315 315 315 315 315 314 313 316 317 316 316 317 316 314 313 313 313 313 312 312 313 312 312 312 312 312 312 313 313 312 312 312 310 308 308 308 307 308 308 308 307 307 306 304 303 302 301 300 299 299 299 298 298 298 297 297 297 296 296 296 295 295 294 294 294 294 294 293 293 293 292 292 291 291 290 290 290 290 290 290 290 289 289 289 289 289 289 289 289 289 288 288 288 287 287 286 286
314 315 315 315 316 316 314 316 317 315 314 316 316 315 314 313 313 313 312 312 313 313 313 312 312 312 312 312 312 312 312 312 314 313 308 306 307 307 307 307 306 305 304 303 302 301 301 300 300 299 298 298 298 298 297 297 297 296 296 295 295 295 294 294 294 294 294 293 293 293 292 292 291 290 290 290 290 290 290 290 290 289 289 288 288 289 289 289 288 288 288 288 287 287 286 286 286
315 315 316 317 317 316 314 315 317 314 314 317 317 314 312 312 312 311 312 312 312 313 313 313 313 312 312 312 312 312 312 314 319 318 309 304 305 306 306 305 305 305 304 303 302 301 301 300 300 299 298 298 297 297 297 297 296 296 296 295 295 295 294 294 294 294 293 293 293 292 292 292 291 290 290 289 290 290 290 290 289 289 288 288 289 289 289 288 288 288 288 288 287 287 286 286 286
315 316 317 317 316 316 315 315 316 313 313 318 317 314 312 312 312 312 312 312 312 313 313 314 314 314 314 313 313 313 313 316 320 319 311 305 304 303 304 304 304 304 302 302 301 301 300 300 300 299 298 298 297 297 297 297 296 296 295 295 295 294 294 294 294 293 293 293 293 293 292 292 291 290 290 289 289 289 290 289 289 289 288 288 289 289 288 288 288 288 288 287 287 286 286 286 286
315 317 316 316 316 316 314 314 316 315 316 316 314 314 314 313 313 313 314 313 313 313 313 314 314 314 314 314 314 314 314 317 319 317 312 308 305 302 302 303 303 302 301 301 301 301 300 300 299 299 298 298 297 297 297 296 296 295 295 294 294 293 293 293 293 293 293 293 293 292 292 292 290 290 289 289 289 289 289 289 289 288 288 288 288 288 288 288 288 288 287 287 286 286 285 285 285
315 317 318 317 316 316 316 316 316 318 322 318 314 318 318 318 317 315 315 315 314 313 312 313 313 313 314 314 313 314 315 317 317 315 312 308 305 302 300 301 301 301 301 301 301 301 300 300 299 299 298 298 297 297 296 296 295 295 294 294 293 293 292 292 292 292 292 292 292 292 292 291 290 289 289 289 289 289 289 289 288 288 288 288 288 288 288 288 288 287 287 286 285 285 285 285 285
315 320 323 318 317 317 318 319 318 323 328 319 316 321 320 318 319 317 316 317 317 316 314 313 313 312 313 313 313 314 317 320 316 312 310 307 304 302 300 300 300 301 301 301 301 301 300 299 299 298 298 297 297 296 296 296 295 295 294 294 293 293 292 292 292 292 292 292 292 292 292 291 290 289 289 288 288 288 288 288 288 288 288 288 288 288 288 288 288 287 287 286 285 285 285 284 284
316 324 329 323 321 322 321 321 323 326 325 318 318 321 319 318 318 317 317 318 318 317 316 315 314 314 313 313 313 314 318 321 317 312 309 306 305 303 301 299 300 301 301 300 300 300 300 299 299 298 298 297 297 296 296 296 295 295 294 294 293 293 293 292 292 292 292 292 291 291 291 291 290 289 288 288 288 288 288 288 288 287 287 287 287 287 287 287 287 287 286 285 284 284 284 284 283
318 322 326 323 321 322 321 320 322 325 321 318 320 319 318 318 316 316 316 314 316 315 316 316 315 316 314 313 313 313 316 319 317 314 310 306 304 301 300 300 300 300 300 300 300 300 299 299 298 298 297 297 296 296 296 296 295 295 294 294 293 293 293 293 292 292 292 291 291 291 291 290 289 289 288 288 288 288 288 288 287 287 287 287 287 287 287 287 287 287 286 285 284 283 283 283 283
318 320 324 327 326 323 320 317 319 324 321 318 321 318 317 318 316 316 315 314 315 314 314 314 314 316 315 314 314 312 315 318 316 313 310 305 302 301 301 300 300 300 300 299 299 299 298 298 298 297 297 297 296 296 296 296 295 295 294 294 293 293 293 292 292 292 292 291 291 291 291 290 289 289 288 288 287 287 287 287 287 287 287 287 287 287 287 287 287 287 286 284 283 283 283 283 283
317 320 325 328 330 327 326 324 321 320 319 319 321 319 317 318 317 317 316 315 316 315 315 314 313 315 315 314 315 314 316 318 316 313 310 305 301 300 300 300 299 299 299 299 298 298 298 298 297 297 297 297 296 296 296 295 295 294 294 294 293 293 293 292 292 291 291 291 291 291 290 290 289 289 289 288 287 287 287 287 286 286 286 287 287 287 287 287 287 286 285 284 283 283 283 283 282
317 325 325 324 329 329 326 324 320 318 319 320 321 318 316 317 317 316 316 316 315 315 316 316 316 316 316 314 315 316 317 318 316 313 310 306 303 301 300 298 299 298 298 298 298 297 297 297 297 297 297 296 296 296 295 295 295 294 294 294 294 293 293 292 292 292 291 291 291 290 290 290 289 289 289 288 287 287 287 286 286 286 286 286 287 287 287 287 287 286 285 284 283 283 282 282 282
317 324 322 320 324 323 321 322 322 321 320 320 318 317 316 315 316 315 316 317 316 315 316 317 319 320 319 316 316 318 320 319 317 314 310 308 305 304 301 298 298 298 297 297 297 297 297 297 297 296 296 296 296 295 295 295 294 294 294 294 293 293 293 293 292 292 291 291 290 290 290 289 289 289 289 288 288 287 287 286 286 286 286 287 287 287 287 287 286 285 284 283 282 282 282 282 281
316 319 321 320 320 320 320 325 326 321 321 321 315 316 318 316 318 318 315 316 318 316 315 316 319 321 320 318 318 320 323 320 316 314 311 308 306 304 301 298 298 298 297 297 297 297 296 296 296 296 296 296 296 295 295 295 294 294 294 294 293 293 293 292 292 292 291 291 290 290 290 290 290 289 289 288 288 288 287 287 286 286 286 286 287 287 287 287 286 284 283 282 282 282 282 281 281
315 317 319 319 323 325 323 325 323 319 326 326 315 318 323 318 319 323 316 314 316 315 315 314 316 318 317 317 321 324 324 320 316 314 311 308 306 303 300 298 298 298 297 297 297 296 296 296 296 296 296 296 295 295 295 294 294 294 294 293 293 293 292 292 292 292 291 291 291 290 290 290 290 290 289 289 288 288 287 287 286 286 286 286 287 287 287 286 285 283 282 282 282 282 282 281 281
316 317 317 314 322 325 319 321 321 317 323 324 316 321 327 318 316 320 316 315 316 315 314 313 314 317 316 318 327 329 324 320 317 315 312 309 306 301 297 298 298 298 297 297 296 296 296 296 296 295 296 296 295 295 295 294 294 294 294 293 293 293 292 292 292 292 291 291 291 291 290 290 290 290 289 289 288 288 287 287 286 286 286 286 286 286 286 285 284 283 282 282 282 281 281 280 280
316 316 316 314 320 321 317 322 323 316 317 318 315 320 322 317 316 316 314 315 316 315 314 313 314 316 316 318 326 330 325 321 317 314 313 310 307 302 297 297 298 297 297 297 296 297 296 296 296 295 295 295 295 295 294 294 294 294 293 293 293 292 292 292 292 292 291 291 291 291 290 290 290 289 289 288 288 287 287 286 286 286 286 286 286 286 285 284 284 283 282 282 281 281 280 280 280
317 319 318 316 318 321 321 325 325 320 319 318 316 317 316 316 317 318 317 316 316 317 315 314 313 314 314 315 322 328 324 318 313 311 310 308 308 304 298 297 298 298 298 297 297 297 296 296 296 295 295 295 295 295 294 294 294 294 293 293 293 292 292 292 292 292 291 291 291 290 290 290 289 289 289 288 288 287 286 286 286 286 285 285 285 285 284 284 283 282 281 281 281 280 280 280 279
318 319 317 317 321 322 322 322 322 320 319 318 317 316 315 314 314 316 316 316 318 318 315 314 312 312 313 313 319 323 318 314 313 313 311 309 308 305 299 297 298 298 298 297 297 296 296 296 296 295 295 295 295 295 294 294 294 293 293 293 292 292 292 292 291 291 291 291 291 290 290 290 289 289 288 288 287 287 286 286 285 285 285 285 285 284 284 283 282 281 281 281 280 279 279 279 279
313 314 314 316 318 321 323 321 320 320 319 318 318 317 316 315 316 316 315 316 317 316 314 314 313 312 313 313 317 322 320 318 318 315 311 308 307 303 299 298 299 298 298 297 296 296 296 296 295 295 295 295 294 294 294 294 293 293 293 292 292 292 292 292 291 291 291 291 291 290 290 290 289 289 288 288 287 287 286 286 285 285 285 285 285 284 283 282 281 281 281 280 280 279 279 279 278
314 314 316 315 314 318 321 318 318 319 317 317 317 317 316 316 318 317 314 316 318 317 315 314 313 313 314 315 316 319 321 320 318 314 310 308 306 302 298 298 299 298 298 297 296 296 296 295 295 295 295 294 294 294 294 294 293 293 293 292 292 292 291 291 291 291 291 290 290 290 290 289 289 288 288 287 287 287 286 286 285 285 285 285 284 283 282 282 281 281 280 280 279 278 278 278 277
315 314 316 315 314 316 318 316 318 318 316 316 316 317 316 314 316 315 312 315 318 319 317 315 315 314 315 317 317 318 320 320 318 316 311 307 306 303 299 298 298 298 298 297 296 296 295 295 295 295 294 294 294 294 294 293 293 292 292 292 291 291 291 291 291 291 290 290 290 290 289 289 288 288 288 287 287 286 286 285 285 285 285 285 284 283 282 282 281 280 280 279 279 278 278 278 277
Wind_Speed
2 3 4 5 7 9 6 2 2 3 2 2 4 2 4 3 2 2 2 1 2 1 1 3 3 3 4 3 7 6 3 2 4 4 2 5 15 17 17 17 14 11 11 10 9 10 10 10 10 9 9 9 9 7 6 6 7 7 7 7 8 8 7 8 9 9 9 9 8 8 9 9 8 7 7 6 5 5 5 5 5 6 7 7 8 8 8 9 9 9 9 7 6 5 4 4 5
1 2 5 5 6 4 2 3 3 3 3 3 4 3 4 2 2 3 4 3 3 3 2 4 5 5 5 5 7 4 2 2 2 4 2 12 18 17 19 18 15 14 14 13 11 11 11 11 10 9 10 10 10 9 7 8 8 7 7 7 8 7 7 8 8 8 8 8 8 8 8 7 5 4 5 4 3 3 3 3 4 5 6 6 6 6 6 7 8 8 7 6 5 5 4 3 3
2 4 7 6 3 1 1 3 2 0 2 3 5 4 2 2 2 2 2 3 5 5 4 4 5 3 4 5 4 1 1 0 4 4 4 17 17 17 23 19 17 17 16 14 12 12 11 11 11 10 11 11 10 10 9 9 9 8 8 8 8 8 7 7 7 7 7 7 7 7 5 4 5 6 7 7 4 3 3 3 4 5 6 6 6 6 5 4 5 6 4 4 5 5 5 5 5
3 4 7 6 3 2 3 2 2 3 2 4 3 6 3 5 5 3 2 4 4 3 4 3 3 1 2 2 1 2 3 2 5 7 7 17 20 23 25 21 19 16 16 14 12 12 12 12 11 11 11 11 11 10 10 10 10 9 8 8 9 9 8 8 7 7 7 7 8 7 5 5 6 7 8 7 5 4 3 3 4 5 5 6 6 6 5 4 4 4 4 5 5 6 6 6 6
3 4 3 3 2 1 2 1 1 2 4 4 2 6 4 6 7 5 3 2 1 3 3 4 2 2 2 2 1 2 4 2 6 9 12 18 22 27 26 23 20 16 16 14 13 12 12 12 10 10 11 11 11 10 10 10 10 9 8 8 9 9 9 8 8 8 7 7 8 7 7 7 7 6 5 4 4 4 4 3 3 3 3 4 5 5 5 5 5 4 4 5 6 6 6 6 7
4 5 2 1 1 1 2 1 2 3 5 5 3 5 5 7 7 7 3 3 3 3 2 4 3 1 1 0 1 3 5 5 8 11 18 21 24 27 25 23 21 18 17 14 14 13 13 12 10 10 10 10 10 9 9 9 9 8 8 9 9 10 10 9 9 9 8 6 5 4 4 5 4 4 3 3 3 4 4 4 4 4 4 3 4 4 5 5 5 5 6 6 7 7 7 7 8
5 5 2 2 2 1 2 3 4 4 6 5 5 4 7 7 7 8 5 2 3 3 2 1 5 5 0 1 2 1 2 7 9 13 21 24 27 27 24 23 21 19 17 15 14 14 14 12 11 12 11 11 10 10 9 9 9 9 9 9 9 10 10 10 10 9 7 6 4 3 4 4 4 4 3 3 3 4 4 5 5 5 5 5 5 5 5 5 5 5 6 7 7 7 7 7 8
3 2 1 4 2 2 1 4 4 4 5 4 3 5 9 9 8 8 6 3 1 1 0 1 5 4 3 2 2 2 2 6 8 16 23 26 29 27 24 25 23 20 18 16 15 15 15 14 13 13 13 12 11 11 10 10 9 9 9 9 9 9 9 8 8 8 7 6 5 5 4 4 4 4 4 3 3 3 4 4 5 6 6 7 7 7 7 7 7 6 6 7 7 7 7 7 7
0 0 2 3 1 2 2 4 4 4 6 5 2 3 7 9 8 7 6 2 2 4 3 4 6 3 3 2 2 3 1 7 12 19 24 28 30 27 26 26 24 23 19 17 15 15 15 15 15 14 14 13 12 12 10 10 8 8 7 7 7 7 7 7 7 6 6 6 5 5 5 5 5 5 4 4 4 5 5 5 6 6 7 8 8 8 8 8 9 8 8 8 8 8 8 8 8
1 1 1 2 1 2 4 4 4 4 6 5 4 5 7 7 6 7 7 4 4 5 4 5 4 2 2 3 2 2 4 14 20 23 25 29 29 27 27 26 24 23 21 19 16 15 16 16 16 16 15 14 13 11 10 9 8 7 6 6 5 5 6 6 6 5 5 5 5 6 6 6 6 7 6 6 7 7 7 8 8 8 9 10 11 11 11 11 11 11 11 11 11 11 11 10 10
2 2 2 2 1 2 4 4 4 5 6 3 2 4 7 7 5 5 6 4 4 6 4 4 2 3 1 1 2 1 12 20 23 26 27 29 27 26 26 25 23 21 21 19 17 17 17 17 17 16 15 14 12 11 10 8 8 7 6 6 5 5 5 5 5 5 5 6 6 7 8 8 8 8 8 8 8 8 9 9 10 10 11 11 12 12 13 13 13 13 13 13 13 13 13 12 12
2 3 3 2 2 3 4 4 6 6 7 3 2 4 3 6 5 4 6 4 4 5 5 6 4 5 3 3 2 4 17 22 22 25 28 28 26 25 25 25 23 20 19 18 19 19 18 18 18 17 16 14 13 11 10 9 9 8 7 7 6 6 5 5 5 6 7 7 8 8 9 9 9 8 8 8 8 9 9 10 10 10 11 11 11 12 12 12 12 12 12 13 13 13 12 12 13
1 1 4 1 4 3 3 4 6 5 5 3 3 4 1 4 3 6 6 4 7 6 6 9 5 6 4 2 1 3 13 20 21 24 28 27 24 25 26 25 23 20 18 18 19 20 20 20 19 18 16 14 13 12 11 10 10 9 9 8 7 7 6 7 7 8 8 8 8 8 8 8 8 8 8 8 8 8 9 9 9 10 10 11 10 11 11 11 12 12 12 13 13 12 12 12 13
2 2 4 2 2 1 4 3 5 4 4 4 2 3 1 2 4 5 5 3 6 6 5 8 7 5 3 1 1 4 11 20 22 24 27 26 23 24 25 24 22 20 18 18 20 21 22 21 20 18 16 15 14 13 12 11 11 11 10 10 10 9 9 9 9 10 9 9 8 8 8 8 8 8 8 8 8 9 9 9 9 10 10 10 11 11 11 12 12 13 13 13 13 13 13 13 13
2 0 3 1 3 2 3 3 5 4 4 4 2 2 1 0 1 1 3 3 5 4 1 4 5 2 4 6 5 6 16 25 25 25 27 24 23 23 23 23 21 20 19 19 20 22 22 21 20 19 18 17 16 15 14 14 13 13 13 12 12 12 12 12 12 11 10 10 9 9 10 10 10 9 9 9 9 10 9 10 10 11 11 11 12 13 13 14 14 15 15 15 15 14 14 14 14
2 2 3 1 3 2 3 3 3 3 5 5 3 2 2 4 1 1 2 3 2 3 1 3 4 2 4 7 5 8 23 30 27 27 26 23 22 21 21 21 21 21 20 20 21 22 22 22 21 20 19 18 17 17 16 15 15 15 15 15 15 15 14 14 14 13 12 12 11 12 12 12 11 10 10 10 11 11 10 11 12 12 12 13 13 14 14 15 15 16 16 16 16 16 16 16 16
3 4 2 2 3 2 3 3 1 2 5 5 3 1 3 5 3 1 1 3 2 2 1 4 3 1 1 4 5 16 29 31 30 28 26 24 22 22 21 21 22 22 23 22 22 22 22 22 22 22 21 20 19 18 17 16 16 17 17 17 17 17 16 16 15 15 14 14 13 13 13 12 12 11 11 11 11 11 11 11 12 12 12 13 14 14 15 15 15 16 16 16 17 17 17 16 17
3 3 2 3 3 4 5 4 3 2 2 4 4 4 5 3 3 0 1 0 1 2 3 4 2 4 3 7 15 25 32 32 31 30 27 24 23 22 23 24 25 26 26 24 24 24 24 24 23 23 23 22 20 19 18 18 18 18 18 18 18 18 17 17 16 16 15 15 14 13 12 12 11 11 11 11 11 11 11 11 11 11 12 13 13 14 14 14 15 15 16 16 17 17 17 17 17
3 3 2 4 5 5 4 4 4 1 3 4 4 5 5 5 4 1 2 5 3 4 5 3 4 2 5 11 20 27 31 31 31 30 27 25 25 24 24 25 27 28 29 28 28 27 27 26 25 25 25 24 23 21 19 19 19 19 19 18 18 18 17 17 16 15 14 13 12 11 11 11 10 10 10 10 10 10 10 10 10 10 11 11 11 11 12 12 13 14 15 16 16 16 17 17 17
2 3 2 6 7 5 6 4 2 2 3 2 2 2 3 5 3 2 3 6 5 7 7 5 8 8 6 8 16 24 27 27 28 27 26 26 27 27 26 27 29 32 34 33 32 30 29 28 27 26 26 25 23 21 21 21 20 20 20 19 19 18 17 17 16 15 13 12 12 11 11 11 10 9 10 10 9 9 8 8 8 8 9 10 10 10 11 11 12 13 14 14 15 16 16 17 16
2 4 5 7 4 4 8 5 2 2 1 2 1 2 3 5 4 4 4 3 7 8 9 9 12 12 11 9 13 21 22 22 24 25 24 25 26 27 28 31 33 34 34 33 33 32 31 30 29 28 27 26 24 23 23 22 21 21 21 20 19 18 18 17 16 15 13 13 13 12 11 11 11 10 10 10 9 7 7 7 7 7 8 9 10 11 12 12 13 13 13 14 15 15 15 16 16
2 5 8 8 4 5 8 5 3 2 3 2 1 3 5 4 3 5 7 7 9 6 9 12 12 11 13 14 15 17 17 18 21 23 24 25 27 28 28 29 29 28 30 33 35 35 34 32 31 30 29 27 25 24 23 22 22 22 21 21 20 19 17 17 16 15 14 14 14 13 12 12 11 10 9 9 8 6 6 6 5 7 7 8 10 11 12 13 14 14 14 14 14 14 14 15 15
4 6 6 7 7 6 6 4 3 3 1 2 2 2 3 2 5 6 10 14 12 6 7 10 10 11 15 17 15 14 15 16 19 24 28 28 29 31 31 30 30 30 32 36 37 36 35 34 32 31 30 29 26 24 23 23 22 22 21 21 21 20 19 18 18 16 15 15 14 14 12 11 11 10 9 8 7 6 5 5 4 5 6 8 10 11 12 13 14 14 13 13 13 14 14 14 15
7 6 5 7 7 7 7 5 5 5 5 6 3 1 3 6 7 3 9 17 13 8 7 7 6 6 12 14 14 16 17 17 22 29 32 33 35 36 34 33 33 33 33 35 36 36 36 35 34 33 32 30 28 26 25 25 23 22 22 22 21 20 20 20 19 17 16 15 14 14 13 12 11 10 9 8 7 6 5 4 3 4 6 7 9 11 12 13 13 13 13 13 14 14 14 15 15
7 7 5 5 5 7 7 6 6 6 6 5 1 5 9 10 4 6 14 16 10 9 8 9 6 5 9 13 15 15 15 17 21 26 29 31 33 32 31 31 30 31 34 36 36 37 37 37 36 35 34 32 30 29 28 27 25 25 24 23 22 21 20 20 18 18 16 15 15 15 14 13 11 10 10 8 7 6 5 4 3 3 6 7 9 10 11 12 12 13 13 14 14 14 15 15 16
7 7 5 4 6 7 7 8 9 7 5 4 4 11 11 6 3 10 20 16 11 10 8 10 9 7 9 11 14 15 14 16 19 23 28 30 27 27 30 31 31 34 37 36 36 38 38 37 37 37 36 34 32 31 30 29 28 27 26 25 24 22 21 20 18 17 17 16 16 16 15 13 12 11 10 9 8 6 5 4 3 4 5 7 9 10 11 12 12 13 13 14 14 14 15 15 16
4 3 5 7 8 8 6 9 11 7 5 6 9 13 9 2 1 10 16 10 9 10 10 10 8 10 11 10 12 14 14 18 23 24 22 22 24 28 31 33 34 36 36 36 38 38 38 38 39 38 37 35 34 33 32 31 30 29 28 26 25 24 23 21 19 18 18 18 18 17 15 14 13 12 11 10 8 6 5 4 2 3 5 7 9 9 10 11 12 13 13 14 14 14 15 15 15
2 3 7 11 7 9 10 11 11 5 5 9 11 8 8 0 4 15 17 5 4 8 10 10 9 11 11 10 11 10 12 20 25 22 18 21 28 32 33 35 38 36 36 39 39 38 38 39 39 39 38 36 36 35 34 33 32 31 29 27 26 25 24 22 20 20 19 19 19 18 16 15 14 13 12 10 9 7 5 4 3 3 4 6 8 9 10 11 11 12 12 13 13 14 15 14 14
3 2 5 13 7 9 16 13 10 6 4 7 8 3 9 6 11 21 19 6 4 7 8 9 10 11 11 10 10 9 12 17 19 19 24 30 33 34 35 39 40 37 38 39 38 38 39 40 40 39 38 37 37 37 35 34 33 32 30 29 28 26 25 23 22 21 20 20 20 18 17 16 15 14 12 11 9 8 6 4 2 2 4 5 7 8 9 9 10 11 11 12 13 14 15 14 14
3 1 2 9 7 8 14 8 7 7 4 8 9 2 9 11 17 20 15 8 8 9 10 10 9 9 10 10 9 10 12 12 15 23 31 33 33 34 36 38 38 37 37 36 38 39 39 40 40 39 39 38 38 37 36 34 33 32 31 29 29 28 26 25 24 23 22 21 20 19 18 18 16 15 13 12 10 9 7 5 3 2 3 4 5 7 7 9 10 11 11 12 13 14 14 14 14
3 2 2 4 3 8 10 2 4 4 3 8 9 3 9 13 16 14 10 9 9 10 13 11 10 9 8 9 10 11 12 13 20 28 32 32 32 33 34 34 35 37 35 36 40 40 40 40 40 39 39 39 38 38 37 35 34 32 31 30 29 28 27 26 26 25 24 22 21 20 20 18 17 16 15 13 11 9 8 6 4 2 2 3 4 5 6 8 9 10 11 12 13 13 13 13 15
1 1 4 3 4 7 10 6 6 6 3 4 8 4 10 15 15 13 9 7 9 11 13 11 11 11 9 9 10 11 12 13 20 27 29 30 32 32 33 33 34 37 38 39 40 39 39 40 40 40 39 39 38 38 37 35 34 32 31 31 30 29 28 28 27 26 25 23 22 21 21 19 18 17 16 14 12 10 8 6 4 3 2 2 3 4 5 7 8 10 10 11 12 12 13 14 15
2 3 6 5 5 5 8 7 3 7 4 4 7 5 7 10 11 11 8 6 9 10 11 11 11 11 10 10 9 11 11 10 14 21 25 29 32 34 34 34 36 39 40 40 39 40 40 40 40 40 39 39 38 37 37 36 34 33 32 31 30 30 29 29 28 27 25 24 23 23 22 21 19 18 16 15 13 11 9 8 6 4 3 1 2 3 4 6 7 8 9 9 10 11 13 15 17
4 2 5 6 7 5 5 6 3 6 7 6 9 7 10 12 9 9 8 5 8 9 11 11 11 10 10 10 10 11 11 11 13 16 24 30 33 35 35 36 37 39 39 40 40 41 41 40 40 39 39 39 38 38 37 36 34 33 32 31 30 30 30 30 29 28 27 25 25 25 24 22 21 19 18 16 14 12 11 9 7 6 3 2 2 2 4 5 6 7 8 8 9 11 13 15 17
3 4 5 5 6 6 9 8 2 6 6 6 8 8 15 18 13 12 13 7 6 9 11 10 10 11 12 10 11 12 11 13 16 16 23 31 33 34 35 35 36 37 38 39 40 40 39 39 39 39 39 39 38 38 37 36 34 33 32 30 29 29 29 30 29 29 28 27 26 25 25 24 23 21 19 17 15 14 12 10 8 6 4 3 1 1 3 4 5 6 8 8 9 11 12 14 16
7 8 6 7 7 8 11 10 5 8 5 6 10 11 15 18 17 16 16 12 9 10 9 9 10 11 12 10 11 12 12 15 16 15 22 30 33 34 35 34 35 37 38 38 38 39 39 39 39 39 39 40 39 38 38 37 35 34 33 31 30 30 30 30 30 29 28 28 27 25 25 25 24 22 20 19 17 15 13 11 9 7 5 4 2 1 2 3 4 5 7 9 11 12 13 14 16
10 9 9 10 9 11 13 10 6 8 6 7 12 14 16 17 19 17 14 11 11 12 11 11 12 12 12 12 14 14 14 15 11 12 22 29 30 32 33 33 33 34 35 37 38 39 40 40 40 40 41 41 42 41 41 40 39 37 35 35 34 33 33 32 30 29 29 28 27 26 25 25 24 23 21 20 18 16 14 12 10 8 7 5 4 2 1 2 3 5 7 9 11 13 14 13 16
11 10 10 10 7 12 14 9 6 6 5 8 11 13 15 16 19 16 10 9 12 15 14 14 15 14 13 14 17 16 14 11 7 9 16 21 25 29 30 31 33 34 34 37 39 40 40 41 42 42 43 43 44 44 44 42 42 40 38 38 37 36 35 34 33 32 30 29 28 27 26 25 24 23 21 20 18 16 15 13 11 10 8 7 5 2 0 1 3 5 6 8 10 12 13 12 14
10 8 8 8 6 11 12 7 6 4 5 7 9 11 13 15 17 15 11 10 13 15 15 17 17 14 13 15 16 15 13 10 8 8 8 15 23 26 28 30 34 36 36 37 39 40 40 41 43 42 43 45 44 44 44 42 41 39 37 37 37 35 34 35 34 33 31 30 29 28 26 25 25 23 21 20 19 17 15 14 12 11 9 8 5 3 1 1 2 4 6 8 8 10 12 10 11
9 9 8 8 7 8 10 5 2 2 4 5 7 8 9 9 13 15 14 13 13 15 16 18 17 13 15 17 15 14 13 11 10 7 6 11 17 22 26 29 32 33 34 36 38 40 41 42 43 43 44 45 44 43 43 41 39 37 34 33 34 33 32 33 31 30 31 30 30 29 28 27 26 24 23 21 19 18 16 14 13 12 10 8 6 4 2 1 1 3 4 6 7 8 9 8 9
11 10 8 11 11 11 12 7 4 3 4 4 5 9 8 8 13 16 13 11 12 14 16 18 18 15 14 17 16 15 13 11 10 9 8 10 13 19 25 28 31 32 34 38 40 42 43 43 44 43 44 44 43 43 42 40 37 35 31 27 28 28 27 29 30 30 32 31 32 32 31 29 28 26 24 22 20 18 17 15 14 13 11 9 6 4 3 2 1 2 3 4 4 6 7 7 9
11 8 11 15 14 13 12 8 6 5 6 4 3 7 8 7 13 16 10 7 10 11 13 17 17 15 13 14 17 15 12 10 9 10 11 11 11 16 21 25 29 31 35 39 42 43 42 42 43 43 43 42 42 42 42 40 38 37 34 31 31 28 27 31 35 35 36 36 36 35 33 31 29 27 25 23 21 19 18 17 15 13 11 9 7 5 4 3 2 2 2 3 3 3 5 8 10
10 6 11 13 11 11 10 6 3 3 6 3 3 2 8 5 8 11 7 7 11 10 11 14 14 13 11 13 16 12 8 8 8 9 11 11 11 12 17 24 30 33 36 39 40 41 40 41 42 42 42 41 41 41 41 41 39 39 39 37 37 35 32 34 37 37 38 38 37 35 34 32 30 28 26 24 22 20 19 17 15 13 11 9 8 6 5 3 2 2 2 3 2 3 5 9 10
8 3 8 9 8 9 7 4 5 4 4 4 2 2 7 11 7 10 11 11 13 12 10 12 12 12 13 14 15 12 8 8 9 9 10 12 12 14 18 26 33 34 35 36 38 40 40 40 42 42 41 40 40 41 42 43 42 41 41 39 37 37 35 35 36 37 37 37 36 35 34 32 30 29 27 25 23 21 19 17 16 14 12 10 9 7 5 4 3 3 3 3 3 5 7 8 8
6 2 5 5 4 4 1 2 3 2 4 4 3 4 4 15 8 9 12 12 11 13 13 13 13 14 15 14 15 13 9 9 10 11 12 13 13 18 23 28 32 33 33 36 38 40 40 39 39 40 40 40 41 42 44 45 44 43 42 39 36 36 35 33 34 35 36 36 36 35 34 32 31 29 27 25 23 21 19 18 16 15 13 11 9 8 7 5 4 3 4 4 5 7 7 7 7
3 4 4 4 3 3 4 1 1 3 5 5 6 7 3 15 9 7 7 7 10 12 12 14 14 14 15 14 13 12 9 8 10 11 12 12 15 21 25 25 27 29 31 34 36 36 37 36 37 39 40 41 42 43 45 45 45 43 42 40 38 36 34 32 32 33 35 35 35 35 35 34 32 30 28 26 24 22 20 18 17 15 13 12 10 9 8 6 5 5 4 5 6 7 6 6 7
1 5 5 6 5 5 4 1 4 2 8 6 10 12 9 10 6 7 6 6 11 11 8 10 11 12 15 14 10 10 9 8 9 9 8 9 14 19 21 22 25 27 29 31 32 33 35 36 37 40 41 42 42 44 45 46 45 44 43 42 41 39 37 34 33 34 35 35 35 36 36 35 34 32 30 27 25 23 21 20 18 16 14 13 12 10 8 7 6 6 5 6 7 7 7 7 8
4 5 4 4 5 4 4 4 4 2 9 6 13 15 13 11 5 2 3 5 9 10 8 10 12 12 14 12 9 9 9 8 8 8 7 8 10 13 16 19 24 26 28 31 33 35 36 37 39 39 40 41 43 44 45 45 45 45 44 43 43 41 39 39 38 38 38 39 38 37 36 35 35 34 32 30 27 25 24 22 20 18 16 15 13 11 9 7 6 7 7 7 8 8 8 9 10
5 4 4 1 5 3 3 3 0 4 7 5 11 10 9 12 6 2 6 7 7 9 9 11 12 12 13 12 9 8 7 7 8 8 8 9 10 11 12 17 22 26 30 33 34 36 37 38 39 39 41 42 43 43 45 45 46 46 45 44 44 42 41 41 40 40 40 41 40 39 39 39 38 37 35 33 31 29 27 25 22 20 18 15 13 11 9 8 8 8 8 9 9 9 9 10 12
6 6 6 4 3 2 3 4 3 5 7 5 6 7 5 9 4 8 13 12 12 11 11 13 11 12 13 11 8 7 7 7 8 8 9 10 11 11 12 16 22 25 30 32 34 36 36 36 38 40 41 42 42 43 45 46 47 47 46 45 44 42 41 42 41 40 41 41 41 42 42 42 42 41 40 37 34 31 28 26 23 21 18 16 14 12 10 9 8 8 9 11 11 10 10 11 12
7 7 6 6 5 4 4 5 6 6 6 5 3 5 5 5 3 9 13 12 11 9 11 12 10 10 11 8 6 5 7 7 7 8 9 10 11 11 12 17 22 25 28 31 33 35 35 37 40 41 41 42 43 44 45 47 48 47 46 45 44 43 42 42 41 40 41 41 42 42 42 43 43 42 40 37 34 31 29 26 23 21 19 17 15 12 11 10 9 10 11 12 11 10 10 11 13
4 5 5 5 6 6 5 6 6 2 3 6 3 4 6 5 6 7 8 9 9 8 10 9 9 11 9 8 7 7 7 7 7 8 9 10 9 9 12 17 21 23 25 29 32 34 37 39 41 42 43 43 44 45 46 48 48 46 46 45 44 43 42 41 41 41 41 42 42 42 42 41 41 40 39 36 33 31 29 27 24 22 20 17 15 13 12 11 11 12 12 12 11 10 11 12 13
2 4 4 5 4 7 5 5 3 2 4 8 6 7 6 5 8 7 6 8 7 7 9 8 11 13 11 10 8 7 7 8 8 8 9 9 8 9 13 17 20 22 26 31 36 39 41 41 41 42 42 40 42 45 46 46 45 45 45 45 44 44 44 43 43 42 41 41 41 41 41 40 40 39 37 35 32 31 29 27 25 23 20 18 15 14 13 12 12 12 12 12 11 11 12 12 12
6 4 6 2 3 2 3 1 2 2 7 8 8 13 9 5 9 5 3 3 7 8 10 10 13 13 12 11 9 7 8 7 7 8 7 7 8 9 13 19 24 28 31 35 38 38 38 38 39 41 40 42 45 46 45 45 44 45 46 46 46 46 46 45 43 41 41 40 40 40 40 40 39 38 36 34 32 31 29 27 25 23 20 18 16 15 13 13 12 12 12 12 11 11 12 12 12
6 3 3 3 1 2 3 3 3 5 8 7 9 14 10 7 9 6 3 6 9 11 11 11 12 12 12 12 9 7 6 5 6 8 7 7 9 10 13 20 25 29 32 33 33 32 33 36 38 39 40 44 44 43 42 43 44 45 46 46 47 46 45 44 42 41 41 41 42 41 40 40 39 37 36 35 34 32 30 28 26 23 21 19 17 15 14 13 12 12 12 12 11 11 12 12 12
2 1 2 1 3 5 4 3 4 5 9 8 9 11 10 9 7 5 8 9 9 10 10 10 11 12 13 11 8 7 7 7 7 8 8 9 10 11 16 22 26 29 30 28 28 30 34 36 36 37 39 40 39 40 42 43 44 44 43 43 44 44 44 43 42 42 42 43 43 42 41 40 39 38 37 36 35 34 32 30 28 25 22 20 18 16 15 14 13 13 12 12 11 11 12 13 13
3 3 4 3 2 2 1 2 3 4 7 7 7 8 9 9 3 3 6 7 7 9 9 10 11 12 12 10 9 9 8 8 9 8 9 10 10 11 17 23 25 24 24 24 27 32 34 35 36 38 39 38 38 41 42 43 43 42 42 43 43 44 43 42 42 43 43 43 43 43 42 41 40 39 39 38 37 35 33 31 29 26 23 21 19 17 16 14 14 13 13 13 12 12 13 14 14
8 7 8 7 6 3 3 6 4 3 5 5 7 8 9 10 5 1 5 5 5 7 8 9 11 13 13 12 11 10 8 9 9 9 9 9 10 11 15 20 21 20 22 26 30 31 32 35 38 39 38 39 41 42 43 43 41 40 41 41 41 41 41 41 42 43 43 43 43 44 43 42 42 41 40 40 38 36 34 32 29 27 24 22 20 18 16 16 15 14 14 14 14 14 14 15 14
Wind_Direction
99 85 59 39 1 349 331 54 66 318 90 280 268 221 266 244 193 111 95 157 98 360 12 84 69 67 95 135 146 135 109 157 172 140 207 170 147 151 144 147 159 165 166 159 161 165 161 157 156 156 155 148 131 122 127 114 106 106 110 118 112 111 116 111 106 104 103 105 107 105 106 109 109 105 96 92 92 85 90 91 92 97 82 71 61 55 59 62 63 65 62 57 61 63 58 52 43
69 41 39 20 347 353 297 86 83 314 46 302 277 195 237 313 50 131 177 167 137 188 138 96 83 81 94 122 132 109 41 18 111 124 136 144 146 152 147 149 158 164 159 155 160 160 156 148 142 147 147 146 137 124 123 114 110 114 114 114 111 111 115 108 104 107 102 99 101 99 100 103 107 104 92 90 103 102 107 105 103 105 89 82 74 55 55 65 66 64 61 53 49 46 43 37 26
26 19 18 8 332 33 5 45 99 212 45 265 277 249 203 82 120 136 177 153 159 164 106 75 66 76 43 53 96 87 206 197 117 105 124 152 157 158 154 152 158 165 161 159 168 164 152 145 141 141 137 134 130 123 120 115 116 121 118 110 108 106 104 107 106 104 101 99 95 95 106 108 98 89 83 84 91 101 103 99 94 86 81 81 74 61 47 51 60 52 38 24 21 18 13 9 1
42 27 7 14 25 31 51 52 167 160 225 236 273 272 204 145 168 133 125 160 173 134 88 68 48 12 48 84 116 72 159 193 150 136 150 173 171 158 156 158 164 170 167 168 174 166 153 148 145 141 136 132 129 123 121 118 119 119 121 119 114 110 102 104 105 102 101 99 91 89 99 99 90 85 84 85 86 89 90 88 86 77 78 79 71 67 51 37 49 38 6 354 351 352 351 352 354
42 28 345 20 72 30 77 121 201 153 226 215 256 270 209 161 162 154 147 154 166 95 114 119 90 301 72 158 202 124 169 125 151 150 151 176 171 157 158 162 169 174 173 177 176 167 156 152 147 145 140 134 128 123 122 118 117 121 132 137 128 115 103 101 100 100 99 94 92 90 89 88 86 87 90 89 84 75 71 69 71 69 70 74 71 68 54 41 39 22 360 354 347 348 346 342 345
15 13 342 15 118 151 94 268 284 256 241 199 235 260 187 163 160 151 128 55 23 36 88 115 143 157 71 337 50 148 177 130 150 164 156 166 168 162 160 163 173 177 176 180 179 171 158 155 153 151 145 138 137 134 135 130 130 140 143 143 134 112 104 105 100 98 102 107 111 109 102 99 95 100 103 91 80 69 64 61 56 57 55 58 63 57 49 38 24 9 356 352 347 345 343 338 335
9 5 4 36 348 44 109 232 242 250 253 201 203 214 167 169 160 136 130 93 19 356 21 121 141 113 150 209 78 116 165 147 155 172 165 159 163 164 160 164 174 176 176 177 173 169 162 161 162 160 156 153 157 156 155 154 154 158 153 150 142 121 115 115 111 112 123 139 143 133 123 118 115 110 106 97 89 76 69 64 59 56 52 51 57 58 53 41 22 8 356 351 349 348 346 341 335
15 356 71 78 13 360 129 252 249 216 252 241 203 182 165 166 155 138 159 166 142 208 359 188 121 97 257 183 150 278 149 165 169 170 163 155 160 161 161 169 174 174 177 175 166 168 168 168 169 166 164 164 165 163 162 161 161 162 160 158 155 148 143 141 140 141 146 148 138 133 126 123 123 116 114 107 99 87 77 68 63 58 55 52 55 60 59 52 38 25 15 9 3 1 359 355 351
298 169 43 80 62 321 284 275 272 235 252 260 237 186 165 164 154 139 157 165 146 165 192 178 123 124 234 178 196 290 125 155 158 159 158 156 159 159 165 176 180 177 180 180 174 173 172 172 173 170 168 168 166 164 163 162 163 165 166 163 163 164 162 162 161 157 153 147 140 137 130 128 123 116 113 103 97 92 87 78 72 66 61 58 55 57 55 53 47 41 35 31 26 22 19 14 8
343 107 76 79 98 303 299 273 257 269 262 228 206 188 165 166 154 140 146 169 166 151 198 168 117 169 193 173 204 292 171 154 151 154 160 159 157 161 170 180 186 182 181 182 180 179 177 175 173 172 170 169 167 164 163 164 169 173 178 179 178 174 170 168 162 159 153 144 135 127 121 119 113 110 105 98 95 89 85 79 75 68 62 58 54 52 49 48 44 42 40 38 37 34 33 31 27
25 329 95 83 49 263 269 258 258 279 283 257 221 210 174 158 135 146 145 158 169 140 168 146 136 218 155 211 260 203 164 159 158 158 162 161 159 167 173 181 189 188 183 178 178 179 178 175 174 174 172 171 170 168 169 173 180 185 191 190 189 183 174 166 157 151 142 132 124 117 113 111 106 105 99 93 89 83 81 75 71 66 63 59 54 51 48 47 43 40 39 37 36 35 37 37 36
69 312 77 109 221 224 233 260 277 278 295 314 262 258 186 133 116 175 167 154 160 141 170 173 174 170 150 256 281 140 156 166 170 163 162 162 163 172 175 180 188 192 187 177 176 177 176 177 177 177 176 175 175 175 179 182 189 193 194 193 190 184 173 161 148 139 133 126 120 114 109 105 101 98 92 88 84 80 77 74 73 69 66 63 59 55 51 49 46 44 43 42 41 40 43 41 38
135 206 86 176 210 207 258 279 282 291 312 296 226 268 51 110 169 201 174 157 159 154 202 196 158 136 169 242 271 160 169 177 174 165 164 164 168 172 175 179 185 189 188 180 177 178 179 180 181 181 180 179 182 182 186 190 194 194 192 193 188 183 172 157 146 138 133 127 122 116 110 106 101 97 94 91 88 85 81 80 79 76 74 69 64 61 58 55 51 50 49 47 47 47 50 48 42
182 193 120 240 256 230 256 270 289 302 295 268 249 279 35 106 217 191 147 166 186 183 224 198 145 121 188 195 205 217 193 185 174 168 167 168 173 172 174 179 183 188 188 184 180 182 181 183 185 185 184 184 188 188 190 193 194 194 191 189 182 176 166 156 149 144 140 136 132 126 122 118 114 110 107 103 100 96 91 89 87 84 80 75 71 67 64 61 56 54 53 50 49 48 47 46 44
183 245 110 236 314 307 243 231 264 262 254 245 210 198 118 281 222 131 156 195 228 231 226 180 150 136 192 185 224 222 188 182 172 170 169 171 176 174 179 179 182 187 189 186 184 186 185 187 188 186 189 188 192 192 192 191 190 189 184 179 174 168 162 158 154 152 151 150 147 143 138 133 128 124 119 115 110 102 96 94 91 86 82 78 70 63 61 57 53 49 48 45 43 42 41 41 40
143 95 70 323 280 288 251 234 250 246 253 240 214 133 109 295 329 89 223 163 232 280 112 188 196 177 176 188 227 185 172 173 168 169 168 169 174 176 181 181 184 187 189 191 189 191 188 188 189 189 192 192 194 194 192 188 184 181 175 172 169 165 163 160 159 158 158 156 154 150 143 137 131 126 121 115 109 104 100 94 86 82 78 72 62 57 56 52 48 44 42 39 37 36 35 35 35
69 81 84 282 246 231 234 237 258 221 252 262 286 121 145 288 315 111 234 128 159 261 221 231 232 85 170 190 167 153 159 164 164 166 165 167 169 171 178 182 185 186 190 194 194 195 192 191 191 192 194 193 195 194 190 185 180 175 171 169 167 166 164 163 163 161 160 159 158 153 142 133 127 124 121 113 108 103 97 89 81 75 69 64 57 52 49 46 44 40 37 33 31 29 28 29 29
66 92 163 240 228 219 209 217 245 201 229 248 255 206 163 245 271 287 324 281 210 219 248 252 280 11 58 135 140 147 155 160 163 164 165 168 170 171 178 183 186 188 189 192 196 197 197 196 194 195 196 194 194 192 188 183 179 174 171 170 168 168 166 165 164 161 162 160 157 149 134 125 122 121 117 110 104 100 93 85 79 71 63 59 51 46 43 39 36 33 31 27 26 24 22 22 22
127 154 188 230 214 226 229 234 265 257 214 210 236 217 179 211 210 122 250 264 250 225 256 230 230 313 77 126 140 148 155 161 167 169 170 174 178 181 183 186 190 192 190 192 195 198 200 199 197 199 199 196 194 190 186 183 179 175 173 172 170 169 167 165 163 161 161 154 147 141 134 128 125 123 116 110 104 99 95 88 80 72 65 60 52 46 41 35 31 27 25 22 21 20 18 18 18
185 166 213 244 223 249 278 275 254 231 217 180 279 234 196 231 187 133 223 258 250 222 235 200 218 228 171 152 150 154 160 167 173 175 179 184 187 189 188 189 193 197 196 195 195 196 200 201 200 200 201 200 195 188 186 184 180 176 175 174 173 172 169 166 163 163 159 150 145 147 149 139 134 133 125 118 112 106 103 95 85 77 68 62 55 47 41 36 30 26 23 20 17 17 17 16 16
187 164 205 239 220 274 277 267 212 182 120 133 286 353 283 256 173 171 182 252 264 231 225 208 217 218 184 176 169 166 168 173 180 184 188 192 195 197 197 197 199 202 200 197 195 197 200 202 202 200 201 202 197 191 188 187 182 178 177 176 176 175 171 167 164 165 162 156 152 157 160 148 143 143 135 127 119 115 109 98 84 73 63 55 49 41 38 33 28 27 23 21 19 18 18 17 17
198 210 216 234 234 276 268 250 216 177 100 112 307 307 268 255 179 195 175 221 249 217 220 216 220 220 184 180 180 174 177 181 186 192 195 197 200 203 205 205 204 204 201 200 200 200 202 203 203 201 200 202 200 196 192 191 187 182 181 180 179 177 173 169 168 169 165 162 161 163 167 159 152 150 144 135 127 122 112 96 77 67 56 46 43 36 32 29 26 26 22 22 22 20 20 20 20
221 249 233 238 235 249 264 258 235 201 162 227 240 239 251 282 263 225 194 227 239 197 201 205 217 223 190 178 175 179 187 189 192 197 199 200 203 205 205 206 204 204 203 205 204 203 204 203 204 203 202 202 202 198 194 193 190 187 185 184 183 181 178 177 175 174 171 170 170 170 176 172 162 158 152 142 136 132 118 99 78 65 53 42 39 33 30 28 24 24 23 23 23 22 21 20 20
214 258 269 259 247 243 263 273 239 202 208 226 214 302 269 243 259 259 219 236 240 228 229 208 203 191 173 170 176 190 194 195 201 204 204 204 207 208 207 206 206 205 204 206 205 204 205 204 204 205 204 204 201 196 194 194 192 189 188 188 189 185 185 186 182 178 177 177 178 178 184 184 172 165 159 153 149 142 129 110 86 63 53 42 36 31 29 27 24 23 22 22 23 21 19 16 17
220 242 264 271 270 260 275 289 257 232 231 225 220 275 247 228 261 295 252 246 243 234 242 237 219 148 155 176 188 196 200 203 209 209 211 213 213 212 210 208 206 205 205 206 205 205 206 205 205 205 205 204 201 196 195 194 192 191 191 192 192 189 190 193 188 183 182 181 183 186 192 191 180 172 166 164 159 150 139 120 96 66 54 43 36 31 28 27 25 23 20 20 21 19 17 14 12
225 228 258 283 283 277 285 288 271 253 239 184 208 256 250 236 293 282 256 246 244 234 235 238 225 201 185 188 193 195 202 207 210 212 214 216 214 214 214 210 206 207 208 206 204 205 206 204 205 206 206 204 201 198 196 194 193 194 194 194 194 191 193 196 193 189 185 185 187 190 197 193 183 178 173 171 165 155 144 128 105 76 56 41 37 31 29 27 23 21 17 17 17 16 15 10 7
233 248 284 279 279 285 274 273 272 260 241 188 204 252 266 237 186 268 258 233 228 229 236 236 213 218 211 197 200 198 204 209 210 210 211 212 211 214 214 210 209 210 208 205 205 205 203 203 204 206 206 204 201 199 198 196 195 197 197 195 195 194 195 197 197 195 189 187 190 192 196 193 185 182 178 175 169 160 152 143 123 85 56 40 36 30 28 25 21 17 14 15 14 12 11 7 2
284 338 317 287 294 303 274 266 270 257 247 203 190 252 286 287 179 248 253 220 194 215 233 236 215 225 220 210 210 200 210 214 210 205 203 206 209 212 211 209 209 208 207 206 206 203 201 202 203 204 205 204 202 201 199 198 198 199 198 196 196 197 198 197 198 201 196 189 192 194 196 193 189 186 182 179 173 169 167 163 142 91 53 37 33 27 25 22 19 15 13 13 8 7 7 2 357
287 21 318 288 321 304 272 267 253 217 221 183 150 294 287 238 221 243 252 246 232 232 239 236 222 228 226 222 218 210 219 215 206 205 210 212 211 211 211 213 209 206 208 207 204 202 202 202 201 202 203 204 203 202 201 200 200 200 199 198 197 198 198 198 200 203 202 194 192 195 196 194 191 189 187 182 178 177 175 178 162 98 52 36 32 26 22 18 16 12 10 6 3 5 0 356 353
277 5 237 281 331 294 269 263 230 211 198 151 130 281 269 246 241 246 255 247 236 240 244 237 228 231 228 227 225 225 225 213 207 213 217 216 215 214 214 215 210 207 207 203 202 203 201 201 200 200 201 203 203 201 201 201 201 200 201 199 198 200 198 199 201 203 205 199 194 195 198 196 191 190 191 186 183 182 182 189 174 111 57 42 33 24 21 14 10 8 5 360 1 360 353 352 351
270 310 225 258 299 275 275 260 175 187 204 150 137 225 258 261 259 255 254 235 217 226 238 236 233 234 232 229 227 232 229 216 218 220 219 218 217 217 216 215 209 207 205 201 203 202 200 199 198 198 199 202 202 201 201 201 201 201 201 200 199 200 198 199 202 203 206 203 198 197 200 199 192 190 192 189 186 185 189 192 174 134 84 54 34 26 20 10 7 5 1 357 357 353 348 352 351
235 250 281 267 204 261 285 273 187 183 231 165 147 202 257 263 267 265 259 228 209 220 234 234 234 235 232 232 229 235 237 227 227 227 223 219 218 218 217 214 208 207 206 203 202 199 199 199 198 197 197 199 200 200 201 201 202 201 201 201 200 200 198 199 202 204 206 204 200 198 201 200 194 192 191 190 188 186 191 191 176 156 130 78 42 37 20 10 9 5 3 357 349 347 348 353 352
281 202 250 262 229 265 294 290 224 168 160 195 197 212 254 262 270 275 273 230 211 219 233 233 234 237 231 233 233 236 244 239 236 233 226 219 218 218 216 214 209 207 206 203 200 197 196 196 196 197 197 197 198 199 199 200 201 201 202 202 201 200 199 200 202 204 206 204 200 200 202 199 195 194 193 192 190 188 191 191 181 169 159 109 67 41 23 17 13 8 6 356 344 346 351 352 351
288 229 234 253 244 257 276 294 319 143 147 202 225 231 247 256 271 288 288 238 207 217 232 234 233 238 235 234 237 238 242 242 241 231 220 218 218 217 216 214 210 207 205 203 201 199 196 194 194 195 196 196 197 197 197 199 200 200 202 202 200 199 199 201 202 204 207 206 202 200 201 200 195 194 196 194 190 189 191 191 187 177 175 146 94 44 36 26 16 9 359 352 347 350 355 354 350
240 232 236 258 251 252 257 268 232 161 171 207 222 237 249 258 264 271 272 250 216 224 229 236 236 238 239 235 237 240 240 242 246 230 216 217 217 214 213 212 209 204 202 201 200 198 195 193 193 194 195 194 196 197 196 197 197 197 199 198 198 199 198 200 202 205 207 208 205 200 200 201 197 195 197 196 192 192 191 191 192 185 186 173 133 71 54 29 17 4 348 348 350 354 359 357 351
233 242 246 254 257 258 255 260 219 178 192 217 219 234 243 253 256 254 260 257 245 242 236 241 243 242 242 237 239 242 241 245 248 231 216 218 215 209 209 208 204 201 199 198 196 195 193 190 190 192 194 194 193 193 193 193 193 194 194 193 194 196 197 198 201 205 207 208 206 201 200 202 199 196 196 196 194 194 193 194 195 193 194 186 172 150 75 28 12 353 344 346 347 354 359 358 355
249 257 258 254 256 265 259 261 241 187 194 224 221 235 241 249 255 250 251 257 257 254 244 240 240 244 245 243 246 246 244 251 256 230 219 217 211 204 204 202 197 195 194 194 192 192 191 189 190 192 193 193 192 191 192 191 191 190 190 191 193 194 195 197 199 203 205 208 207 205 203 202 201 198 196 196 195 196 196 196 197 197 196 190 187 180 89 22 6 348 347 349 347 350 352 358 358
249 251 259 260 247 262 262 255 248 193 197 247 234 242 249 249 256 257 247 243 251 252 247 245 240 239 246 247 250 250 248 257 263 231 218 209 201 198 197 194 190 189 190 191 191 190 191 191 193 194 193 193 194 194 193 193 193 192 192 193 194 194 195 197 198 201 203 205 207 207 206 205 204 201 199 198 198 199 198 198 200 201 197 193 194 190 142 9 3 351 348 350 350 348 346 355 2
243 246 256 262 248 268 269 245 248 201 189 253 249 246 254 252 258 261 250 235 240 246 246 250 247 242 248 249 249 251 252 257 252 232 208 194 191 190 189 189 189 190 189 189 190 190 190 192 195 195 194 194 196 196 195 195 195 196 197 197 196 195 196 199 201 200 201 203 206 208 208 208 208 205 202 201 201 201 200 201 201 201 201 199 202 203 198 342 353 352 349 348 349 346 344 350 359
239 241 250 258 250 264 268 248 257 221 205 256 267 262 257 260 270 266 252 241 241 247 247 252 254 246 246 250 251 252 249 245 240 227 195 188 185 183 185 186 187 187 186 187 188 189 191 194 196 196 196 196 196 196 196 197 197 197 200 201 199 197 197 198 199 199 200 202 203 205 208 211 211 208 205 205 203 202 202 202 203 203 204 205 208 210 211 242 336 345 347 345 344 342 341 339 338
243 233 232 250 250 245 255 276 324 295 280 289 285 288 269 234 253 260 254 244 243 248 249 254 257 250 248 256 257 252 245 233 220 210 195 188 184 185 187 186 184 184 185 188 189 191 194 196 197 197 198 198 197 197 197 197 195 194 195 195 195 196 195 193 193 194 197 200 203 205 208 210 211 210 208 207 205 204 203 202 205 207 207 209 211 211 214 224 275 325 335 336 338 333 325 312 313
260 226 213 237 248 248 257 289 331 316 296 284 234 280 275 206 223 249 257 252 249 245 242 248 254 253 250 257 258 250 239 229 211 201 195 191 188 185 185 184 183 186 189 191 193 194 196 197 198 198 198 198 199 198 197 196 195 193 191 189 188 188 188 191 194 194 195 200 204 206 207 209 210 210 209 208 206 204 203 204 206 209 210 210 211 212 212 219 252 291 310 315 323 313 300 294 300
270 226 206 227 242 255 262 274 296 264 264 275 138 236 278 246 215 238 243 242 250 245 238 243 249 252 244 244 256 249 223 218 212 204 195 188 184 180 185 188 188 191 194 194 194 195 197 198 198 198 199 199 199 198 197 197 196 196 196 195 194 192 191 195 199 199 199 201 204 205 206 207 209 209 209 208 206 205 205 206 208 208 210 210 211 214 213 221 242 261 284 296 292 260 263 279 293
267 218 192 211 230 250 253 231 222 233 273 296 129 125 289 279 236 212 216 222 242 250 246 247 245 246 243 239 250 247 214 201 201 202 198 191 187 185 189 193 194 195 195 193 194 196 198 199 199 199 199 199 199 199 198 199 199 199 199 199 199 199 199 200 200 201 202 202 203 204 204 205 208 209 210 208 206 206 206 207 208 207 207 209 211 213 212 223 235 250 273 274 257 249 252 268 286
256 151 167 176 197 226 151 159 223 297 330 285 204 121 290 279 249 191 210 213 227 244 241 244 243 241 244 240 244 248 225 200 199 199 198 194 191 193 194 195 197 197 195 194 196 197 198 199 198 198 199 199 200 200 200 201 202 201 200 201 201 203 204 203 201 200 201 201 201 202 203 204 206 208 210 209 207 207 208 209 209 208 208 209 211 212 212 222 237 250 262 258 246 246 250 263 278
239 98 83 61 60 51 68 103 120 36 307 253 195 150 217 278 268 164 194 207 213 235 235 236 237 238 248 244 238 245 234 207 206 205 200 194 192 196 196 195 197 198 197 198 198 197 197 197 197 198 200 201 201 201 202 203 203 202 202 201 202 202 202 202 199 198 198 199 198 199 200 202 203 205 207 209 208 207 208 209 210 210 210 211 211 212 215 222 239 253 257 255 247 249 257 265 277
130 82 48 22 7 27 50 19 75 50 275 234 184 177 187 270 285 142 170 199 198 213 225 239 242 239 250 249 233 231 227 211 206 204 197 189 191 195 194 194 196 198 199 199 198 198 197 197 198 200 202 202 202 202 203 203 203 203 204 203 203 202 200 198 196 195 196 196 196 196 199 201 202 204 204 205 207 207 207 208 210 210 209 211 212 212 218 225 238 250 252 251 249 256 271 278 276
85 81 64 8 328 12 24 357 59 214 265 220 184 183 187 233 273 126 232 238 203 205 206 225 237 236 246 251 235 223 220 205 192 189 180 172 183 191 192 194 195 196 197 199 199 198 198 199 199 201 203 203 204 203 203 204 204 205 206 205 205 204 201 200 198 197 196 196 196 196 196 198 199 201 202 203 205 205 206 207 207 208 209 210 211 212 220 229 238 247 246 246 251 262 274 275 269
95 99 103 5 300 340 348 313 121 222 261 231 189 179 205 240 258 266 278 284 236 221 213 215 223 230 243 251 239 221 211 194 181 179 176 176 186 189 191 195 194 195 198 199 199 199 199 200 200 201 204 204 204 204 204 204 205 206 207 207 207 206 204 204 203 201 200 198 197 195 194 194 195 197 200 202 204 204 205 206 205 207 209 210 211 214 222 231 240 245 244 245 253 264 269 264 259
157 148 145 171 221 259 264 262 269 263 270 258 184 164 241 277 273 212 227 236 225 216 218 220 219 224 234 248 248 218 199 192 184 180 181 186 193 193 192 195 196 198 200 199 199 200 199 200 202 204 206 206 205 205 205 205 207 208 208 208 208 207 206 207 206 205 203 200 198 197 196 196 196 198 201 202 203 203 204 206 206 207 208 208 211 215 222 232 240 242 244 248 255 260 259 254 252
181 161 151 182 187 179 220 241 255 273 287 284 173 161 234 282 268 215 217 233 234 221 223 226 228 235 240 260 269 215 195 191 186 187 192 197 196 194 195 197 200 201 200 199 201 201 200 202 204 205 207 206 206 206 206 206 208 208 208 209 209 208 208 208 208 208 206 203 201 199 199 199 199 201 203 203 202 203 203 204 205 206 205 206 211 216 223 231 236 240 244 249 253 253 251 249 249
218 130 131 212 197 185 229 257 238 230 311 286 220 199 235 251 264 249 238 254 254 238 235 234 244 251 249 256 247 213 196 189 191 196 203 208 201 195 200 201 204 203 200 202 203 202 202 204 205 206 208 207 206 207 208 208 208 208 208 209 209 209 209 209 209 209 208 206 203 202 201 201 202 203 204 204 202 202 203 203 203 204 204 206 210 215 222 228 232 238 243 248 249 247 247 246 247
197 128 185 218 162 169 219 277 269 161 257 271 254 248 275 309 289 265 237 255 269 266 255 240 242 245 241 242 234 215 205 194 197 206 206 208 203 202 206 204 204 204 202 205 206 205 205 205 205 207 208 208 208 209 210 210 208 207 208 209 209 209 208 209 209 208 207 206 205 204 203 203 204 204 204 204 203 202 204 204 202 202 203 206 210 215 221 226 232 238 242 246 245 242 243 245 246
132 174 216 190 65 126 164 222 293 242 246 264 269 268 282 300 284 307 40 275 265 265 253 238 239 241 241 243 233 221 214 201 209 226 225 217 211 211 211 209 209 208 208 210 209 208 208 208 207 208 207 207 209 210 211 211 209 208 208 208 208 209 209 209 209 207 206 205 205 205 204 204 204 204 204 202 202 202 202 203 203 203 204 207 212 216 221 225 231 236 239 240 239 238 241 245 248
134 204 218 122 156 231 164 174 209 233 245 256 268 275 278 251 255 296 317 249 240 242 239 239 243 242 245 247 243 239 232 217 218 225 228 220 216 216 213 213 214 214 215 216 213 210 211 212 212 211 211 211 211 210 211 213 212 210 209 208 208 208 208 208 207 206 205 204 205 205 204 205 204 203 202 201 201 201 201 202 203 204 206 209 213 216 220 225 228 233 234 234 236 237 242 249 254
99 320 305 103 187 192 185 183 168 215 243 252 260 272 274 255 238 247 253 240 233 238 237 240 241 237 241 245 241 239 229 219 218 218 220 217 218 220 217 217 217 217 219 218 213 212 212 213 214 214 215 215 214 212 213 215 215 213 211 209 209 208 207 207 205 205 205 205 206 205 204 205 203 201 201 200 200 200 200 202 203 205 207 209 213 215 218 222 225 228 231 232 234 236 243 251 256
187 208 237 238 219 176 219 232 166 203 238 246 251 255 265 265 217 180 260 250 225 231 229 233 238 237 243 247 238 231 224 223 223 220 221 219 221 224 223 224 223 222 222 218 215 215 214 214 214 215 216 215 214 214 214 216 216 215 212 209 208 207 205 205 204 205 205 205 205 205 204 203 201 200 200 199 199 200 202 203 204 205 208 210 213 214 216 220 223 224 227 229 232 234 242 250 255
184 200 211 209 209 199 250 249 215 210 238 239 250 252 262 273 261 246 292 268 226 230 226 234 245 240 238 237 229 222 220 227 226 220 223 220 220 224 225 226 223 220 220 218 216 216 214 215 215 215 215 214 215 215 214 216 216 215 215 211 207 205 204 203 203 203 203 204 204 204 203 201 200 199 199 199 200 201 202 204 204 206 208 210 212 213 216 219 219 220 223 227 230 234 241 247 252